"read_dt","SO2 (ppb)","flags","PMT voltage (V)","lamp voltage (V)","lamp intensity (Hz)","internal temp (C)","react chamber temp (C)","sample flow (l/min)","pres (mmHg)","SO2 bkg (ppb)","SO2 coefficient"
2015-09-26 00:00:00,1952E-3,5C000400,-0724,0825,12349,025.2,045.3,0.261,762.0,01.16,0.508
2015-09-26 00:01:00,1853E-3,5C000400,-0724,0825,12121,025.2,045.3,0.261,762.1,01.16,0.508
2015-09-26 00:02:00,1748E-3,5C000400,-0724,0824,12207,025.2,045.3,0.262,762.0,01.16,0.508
2015-09-26 00:03:00,1952E-3,5C000400,-0724,0825,12313,025.2,045.4,0.261,762.1,01.16,0.508
2015-09-26 00:04:00,1991E-3,5C000400,-0724,0824,12114,025.2,045.4,0.261,762.0,01.16,0.508
2015-09-26 00:05:00,1989E-3,5C000400,-0724,0825,12174,025.2,045.3,0.261,761.9,01.16,0.508
2015-09-26 00:06:00,1927E-3,5C000400,-0724,0826,12210,025.1,045.3,0.261,761.9,01.16,0.508
2015-09-26 00:07:00,1906E-3,5C000400,-0724,0824,12340,025.1,045.4,0.261,762.1,01.16,0.508
2015-09-26 00:08:00,1872E-3,5C000400,-0724,0824,12165,025.2,045.4,0.261,762.1,01.16,0.508
2015-09-26 00:09:00,1826E-3,5C000400,-0724,0825,12271,025.2,045.4,0.262,761.9,01.16,0.508
2015-09-26 00:10:00,1832E-3,5C000400,-0724,0825,12179,025.1,045.4,0.262,762.0,01.16,0.508
2015-09-26 00:11:00,1868E-3,5C000400,-0724,0826,12288,025.1,045.4,0.261,762.2,01.16,0.508
2015-09-26 00:12:00,1807E-3,5C000400,-0724,0825,12257,025.1,045.4,0.261,762.0,01.16,0.508
2015-09-26 00:13:00,1981E-3,5C000400,-0724,0825,12273,025.1,045.3,0.261,762.1,01.16,0.508
2015-09-26 00:14:00,1885E-3,5C000400,-0724,0825,12202,025.1,045.4,0.261,762.3,01.16,0.508
2015-09-26 00:15:00,1869E-3,5C000400,-0724,0825,12214,025.1,045.4,0.261,762.1,01.16,0.508
2015-09-26 00:16:00,1809E-3,5C000400,-0724,0825,12313,025.1,045.3,0.261,762.1,01.16,0.508
2015-09-26 00:17:00,1867E-3,5C000400,-0724,0825,12364,025.1,045.3,0.261,762.1,01.16,0.508
2015-09-26 00:18:00,1933E-3,5C000400,-0724,0826,12283,025.1,045.3,0.262,762.2,01.16,0.508
2015-09-26 00:19:00,1822E-3,5C000400,-0724,0826,12339,025.1,045.4,0.261,762.3,01.16,0.508
2015-09-26 00:20:00,1906E-3,5C000400,-0724,0825,12230,025.1,045.3,0.261,762.3,01.16,0.508
2015-09-26 00:21:00,1833E-3,5C000400,-0724,0826,12302,025.1,045.4,0.261,762.1,01.16,0.508
2015-09-26 00:22:00,1833E-3,5C000400,-0724,0826,12269,025.1,045.4,0.261,762.2,01.16,0.508
2015-09-26 00:23:00,1714E-3,5C000400,-0724,0825,12159,025.1,045.4,0.261,762.2,01.16,0.508
2015-09-26 00:24:00,1997E-3,5C000400,-0724,0824,12328,025.1,045.3,0.261,762.3,01.16,0.508
2015-09-26 00:25:00,1801E-3,5C000400,-0724,0825,12323,025.1,045.3,0.261,762.3,01.16,0.508
2015-09-26 00:26:00,1902E-3,5C000400,-0724,0825,12279,025.1,045.3,0.261,762.2,01.16,0.508
2015-09-26 00:27:00,1852E-3,5C000400,-0724,0825,12191,025.1,045.4,0.262,762.2,01.16,0.508
2015-09-26 00:28:00,1846E-3,5C000400,-0724,0825,12172,025.1,045.4,0.262,762.0,01.16,0.508
2015-09-26 00:29:00,1823E-3,5C000400,-0724,0825,12368,025.1,045.3,0.261,762.1,01.16,0.508
2015-09-26 00:30:00,1860E-3,5C000400,-0724,0825,12390,025.2,045.4,0.261,762.1,01.16,0.508
2015-09-26 00:31:00,1859E-3,5C000400,-0724,0825,12347,025.1,045.3,0.261,762.1,01.16,0.508
2015-09-26 00:32:00,1993E-3,5C000400,-0724,0825,12311,025.1,045.4,0.261,761.9,01.16,0.508
2015-09-26 00:33:00,1939E-3,5C000400,-0724,0825,12256,025.1,045.4,0.261,761.9,01.16,0.508
2015-09-26 00:34:00,1776E-3,5C000400,-0724,0825,12140,025.1,045.3,0.261,762.1,01.16,0.508
2015-09-26 00:35:00,1822E-3,5C000400,-0724,0825,12097,025.1,045.3,0.261,762.1,01.16,0.508
2015-09-26 00:36:00,1786E-3,5C000400,-0724,0825,12147,025.1,045.3,0.261,762.2,01.16,0.508
2015-09-26 00:37:00,1833E-3,5C000400,-0724,0825,12211,025.1,045.3,0.262,762.3,01.16,0.508
2015-09-26 00:38:00,1818E-3,5C000400,-0724,0825,12222,025.1,045.4,0.262,762.0,01.16,0.508
2015-09-26 00:39:00,1864E-3,5C000400,-0724,0825,12281,025.1,045.4,0.262,762.0,01.16,0.508
2015-09-26 00:40:00,1871E-3,5C000400,-0724,0825,12199,025.1,045.4,0.261,762.2,01.16,0.508
2015-09-26 00:41:00,1900E-3,5C000400,-0724,0825,12202,025.1,045.4,0.261,762.2,01.16,0.508
2015-09-26 00:42:00,1890E-3,5C000400,-0724,0825,12273,025.1,045.4,0.262,761.9,01.16,0.508
2015-09-26 00:43:00,1959E-3,5C000400,-0724,0825,12312,025.1,045.4,0.262,762.1,01.16,0.508
2015-09-26 00:44:00,1782E-3,5C000400,-0724,0826,12161,025.1,045.4,0.262,762.2,01.16,0.508
2015-09-26 00:45:00,1863E-3,5C000400,-0724,0824,12329,025.1,045.3,0.262,762.0,01.16,0.508
2015-09-26 00:46:00,1902E-3,5C000400,-0724,0824,12323,025.1,045.4,0.261,761.9,01.16,0.508
2015-09-26 00:47:00,1968E-3,5C000400,-0724,0825,12229,025.1,045.4,0.261,762.0,01.16,0.508
2015-09-26 00:48:00,1797E-3,5C000400,-0724,0825,12249,025.1,045.3,0.261,761.9,01.16,0.508
2015-09-26 00:49:00,1860E-3,5C000400,-0724,0824,12136,025.1,045.3,0.261,762.0,01.16,0.508
2015-09-26 00:50:00,1874E-3,5C000400,-0724,0825,12151,025.1,045.3,0.261,761.9,01.16,0.508
2015-09-26 00:51:00,1847E-3,5C000400,-0724,0825,12214,025.1,045.4,0.261,762.2,01.16,0.508
2015-09-26 00:52:00,1808E-3,5C000400,-0724,0825,12139,025.1,045.4,0.261,762.0,01.16,0.508
2015-09-26 00:53:00,1841E-3,5C000400,-0724,0824,12291,025.1,045.4,0.261,762.2,01.16,0.508
2015-09-26 00:54:00,1832E-3,5C000400,-0724,0824,12330,025.1,045.3,0.262,762.0,01.16,0.508
2015-09-26 00:55:00,1894E-3,5C000400,-0724,0825,12269,025.1,045.4,0.261,762.1,01.16,0.508
2015-09-26 00:56:00,1879E-3,5C000400,-0724,0825,12364,025.1,045.4,0.261,761.9,01.16,0.508
2015-09-26 00:57:00,1811E-3,5C000400,-0724,0824,12265,025.1,045.4,0.261,762.2,01.16,0.508
2015-09-26 00:58:00,1812E-3,5C000400,-0724,0824,12264,025.1,045.4,0.261,762.3,01.16,0.508
2015-09-26 00:59:00,1971E-3,5C000400,-0724,0824,12302,025.1,045.3,0.261,761.9,01.16,0.508
2015-09-26 01:00:00,1950E-3,5C000400,-0724,0824,12407,025.1,045.3,0.262,762.2,01.16,0.508
2015-09-26 01:01:00,1874E-3,5C000400,-0724,0825,12281,025.1,045.4,0.262,762.2,01.16,0.508
2015-09-26 01:02:00,1881E-3,5C000400,-0724,0825,12088,025.1,045.3,0.262,762.2,01.16,0.508
2015-09-26 01:03:00,1833E-3,5C000400,-0724,0824,12331,025.1,045.3,0.262,762.1,01.16,0.508
2015-09-26 01:04:00,1757E-3,5C000400,-0724,0824,12212,025.1,045.4,0.261,762.0,01.16,0.508
2015-09-26 01:05:00,1778E-3,5C000400,-0724,0824,12189,025.1,045.3,0.261,762.1,01.16,0.508
2015-09-26 01:06:00,1802E-3,5C000400,-0724,0825,12234,025.1,045.4,0.261,762.1,01.16,0.508
2015-09-26 01:07:00,1849E-3,5C000400,-0724,0825,12287,025.1,045.4,0.261,762.1,01.16,0.508
2015-09-26 01:08:00,2003E-3,5C000400,-0724,0824,12165,025.1,045.3,0.261,762.2,01.16,0.508
2015-09-26 01:09:00,1842E-3,5C000400,-0724,0825,12363,025.1,045.4,0.262,762.1,01.16,0.508
2015-09-26 01:10:00,1873E-3,5C000400,-0724,0824,12271,025.1,045.4,0.262,762.4,01.16,0.508
2015-09-26 01:11:00,1933E-3,5C000400,-0724,0824,12214,025.1,045.4,0.262,762.3,01.16,0.508
2015-09-26 01:12:00,1881E-3,5C000400,-0724,0824,12283,025.1,045.3,0.261,762.3,01.16,0.508
2015-09-26 01:13:00,2018E-3,5C000400,-0724,0824,12164,025.1,045.4,0.261,762.3,01.16,0.508
2015-09-26 01:14:00,1951E-3,5C000400,-0724,0825,12357,025.1,045.3,0.261,762.2,01.16,0.508
2015-09-26 01:15:00,1954E-3,5C000400,-0724,0824,12362,025.1,045.4,0.261,762.3,01.16,0.508
2015-09-26 01:16:00,1859E-3,5C000400,-0724,0825,12248,025.1,045.4,0.261,762.3,01.16,0.508
2015-09-26 01:17:00,1872E-3,5C000400,-0724,0826,12371,025.1,045.4,0.262,762.2,01.16,0.508
2015-09-26 01:18:00,1889E-3,5C000400,-0724,0824,12248,025.1,045.4,0.262,762.1,01.16,0.508
2015-09-26 01:19:00,1712E-3,5C000400,-0724,0825,12327,025.1,045.4,0.262,762.0,01.16,0.508
2015-09-26 01:20:00,1833E-3,5C000400,-0724,0824,12296,025.1,045.3,0.262,762.0,01.16,0.508
2015-09-26 01:21:00,1931E-3,5C000400,-0724,0824,12316,025.1,045.3,0.262,762.1,01.16,0.508
2015-09-26 01:22:00,1809E-3,5C000400,-0724,0825,12323,025.1,045.3,0.261,762.2,01.16,0.508
2015-09-26 01:23:00,1698E-3,5C000400,-0724,0825,12259,025.1,045.3,0.261,761.9,01.16,0.508
2015-09-26 01:24:00,1893E-3,5C000400,-0724,0825,12264,025.1,045.4,0.261,762.2,01.16,0.508
2015-09-26 01:25:00,1953E-3,5C000400,-0724,0825,12166,025.1,045.4,0.262,762.2,01.16,0.508
2015-09-26 01:26:00,1785E-3,5C000400,-0724,0825,12264,025.1,045.4,0.262,762.2,01.16,0.508
2015-09-26 01:27:00,1831E-3,5C000400,-0724,0825,12194,025.1,045.3,0.262,762.2,01.16,0.508
2015-09-26 01:28:00,1886E-3,5C000400,-0724,0826,12268,025.1,045.4,0.262,762.3,01.16,0.508
2015-09-26 01:29:00,1835E-3,5C000400,-0724,0825,12259,025.1,045.4,0.262,762.3,01.16,0.508
2015-09-26 01:30:00,1789E-3,5C000400,-0724,0825,12241,025.1,045.4,0.261,762.0,01.16,0.508
2015-09-26 01:31:00,1920E-3,5C000400,-0724,0825,12190,025.1,045.4,0.261,762.1,01.16,0.508
2015-09-26 01:32:00,1749E-3,5C000400,-0724,0825,12305,025.1,045.3,0.261,762.2,01.16,0.508
2015-09-26 01:33:00,1971E-3,5C000400,-0724,0825,12235,025.1,045.3,0.261,762.1,01.16,0.508
2015-09-26 01:34:00,1883E-3,5C000400,-0724,0825,12276,025.1,045.3,0.262,762.1,01.16,0.508
2015-09-26 01:35:00,1864E-3,5C000400,-0724,0824,12110,025.1,045.3,0.262,762.1,01.16,0.508
2015-09-26 01:36:00,1896E-3,5C000400,-0724,0825,12226,025.1,045.3,0.262,762.1,01.16,0.508
2015-09-26 01:37:00,1853E-3,5C000400,-0724,0825,12218,025.1,045.3,0.262,762.2,01.16,0.508
2015-09-26 01:38:00,1888E-3,5C000400,-0724,0825,12304,025.1,045.4,0.261,762.1,01.16,0.508
2015-09-26 01:39:00,1985E-3,5C000400,-0724,0826,12306,025.1,045.3,0.262,762.2,01.16,0.508
2015-09-26 01:40:00,1784E-3,5C000400,-0724,0825,12256,025.1,045.3,0.261,762.3,01.16,0.508
2015-09-26 01:41:00,1799E-3,5C000400,-0724,0825,12247,025.1,045.3,0.262,762.2,01.16,0.508
2015-09-26 01:42:00,1937E-3,5C000400,-0724,0825,12085,025.1,045.4,0.262,762.3,01.16,0.508
2015-09-26 01:43:00,1844E-3,5C000400,-0724,0826,12332,025.1,045.4,0.262,762.3,01.16,0.508
2015-09-26 01:44:00,1866E-3,5C000400,-0724,0825,12222,025.1,045.4,0.261,762.2,01.16,0.508
2015-09-26 01:45:00,1925E-3,5C000400,-0724,0825,12213,025.1,045.4,0.261,762.3,01.16,0.508
2015-09-26 01:46:00,1895E-3,5C000400,-0724,0825,12171,025.1,045.3,0.261,762.0,01.16,0.508
2015-09-26 01:47:00,1871E-3,5C000400,-0724,0825,12153,025.1,045.4,0.262,762.0,01.16,0.508
2015-09-26 01:48:00,1901E-3,5C000400,-0724,0825,12339,025.1,045.4,0.261,762.1,01.16,0.508
2015-09-26 01:49:00,1815E-3,5C000400,-0724,0826,12390,025.1,045.4,0.262,762.3,01.16,0.508
2015-09-26 01:50:00,1843E-3,5C000400,-0724,0824,12309,025.1,045.3,0.262,762.4,01.16,0.508
2015-09-26 01:51:00,1816E-3,5C000400,-0724,0825,12192,025.1,045.3,0.261,762.2,01.16,0.508
2015-09-26 01:52:00,1912E-3,5C000400,-0724,0825,12354,025.1,045.3,0.261,762.3,01.16,0.508
2015-09-26 01:53:00,1828E-3,5C000400,-0724,0825,12278,025.1,045.4,0.261,762.2,01.16,0.508
2015-09-26 01:54:00,1823E-3,5C000400,-0724,0824,12141,025.1,045.3,0.261,762.3,01.16,0.508
2015-09-26 01:55:00,1927E-3,5C000400,-0724,0826,12191,025.1,045.3,0.261,762.1,01.16,0.508
2015-09-26 01:56:00,1870E-3,5C000400,-0724,0825,12148,025.1,045.3,0.262,762.1,01.16,0.508
2015-09-26 01:57:00,1962E-3,5C000400,-0724,0826,12322,025.1,045.3,0.261,762.3,01.16,0.508
2015-09-26 01:58:00,1738E-3,5C000400,-0724,0825,12369,025.1,045.4,0.261,762.3,01.16,0.508
2015-09-26 01:59:00,1959E-3,5C000400,-0724,0825,12236,025.1,045.4,0.261,762.5,01.16,0.508
2015-09-26 02:00:00,1826E-3,5C000400,-0724,0825,12178,025.1,045.4,0.261,762.5,01.16,0.508
2015-09-26 02:01:00,1898E-3,5C000400,-0724,0824,12271,025.1,045.3,0.261,762.3,01.16,0.508
2015-09-26 02:02:00,1849E-3,5C000400,-0724,0824,12193,025.1,045.3,0.261,762.5,01.16,0.508
2015-09-26 02:03:00,2039E-3,5C000400,-0724,0825,12018,025.1,045.3,0.262,762.1,01.16,0.508
2015-09-26 02:04:00,1893E-3,5C000400,-0724,0824,12238,025.1,045.4,0.262,762.3,01.16,0.508
2015-09-26 02:05:00,1930E-3,5C000400,-0724,0825,12244,025.1,045.4,0.261,762.4,01.16,0.508
2015-09-26 02:06:00,1880E-3,5C000400,-0724,0825,12190,025.1,045.3,0.261,762.7,01.16,0.508
2015-09-26 02:07:00,1913E-3,5C000400,-0724,0826,12287,025.1,045.3,0.261,762.5,01.16,0.508
2015-09-26 02:08:00,1792E-3,5C000400,-0724,0825,12231,025.1,045.3,0.261,762.6,01.16,0.508
2015-09-26 02:09:00,1727E-3,5C000400,-0724,0825,12077,025.1,045.4,0.261,762.7,01.16,0.508
2015-09-26 02:10:00,1936E-3,5C000400,-0724,0825,12168,025.1,045.3,0.262,762.4,01.16,0.508
2015-09-26 02:11:00,1843E-3,5C000400,-0724,0825,12252,025.1,045.3,0.262,762.5,01.16,0.508
2015-09-26 02:12:00,1726E-3,5C000400,-0724,0826,12225,025.1,045.3,0.261,762.6,01.16,0.508
2015-09-26 02:13:00,1923E-3,5C000400,-0724,0825,12295,025.2,045.4,0.261,762.4,01.16,0.508
2015-09-26 02:14:00,1841E-3,5C000400,-0724,0825,12247,025.2,045.4,0.261,762.4,01.16,0.508
2015-09-26 02:15:00,1976E-3,5C000400,-0724,0825,12188,025.1,045.4,0.261,762.6,01.16,0.508
2015-09-26 02:16:00,1866E-3,5C000400,-0724,0825,12139,025.2,045.4,0.261,762.4,01.16,0.508
2015-09-26 02:17:00,1991E-3,5C000400,-0724,0825,12241,025.2,045.3,0.261,762.3,01.16,0.508
2015-09-26 02:18:00,1961E-3,5C000400,-0724,0825,12201,025.1,045.3,0.262,762.4,01.16,0.508
2015-09-26 02:19:00,1731E-3,5C000400,-0724,0825,12273,025.2,045.4,0.261,762.6,01.16,0.508
2015-09-26 02:20:00,1869E-3,5C000400,-0724,0825,12342,025.2,045.4,0.261,762.7,01.16,0.508
2015-09-26 02:21:00,1871E-3,5C000400,-0724,0825,12163,025.2,045.4,0.261,762.5,01.16,0.508
2015-09-26 02:22:00,1930E-3,5C000400,-0724,0824,12208,025.2,045.4,0.261,762.6,01.16,0.508
2015-09-26 02:23:00,1852E-3,5C000400,-0724,0825,12349,025.2,045.4,0.261,762.6,01.16,0.508
2015-09-26 02:24:00,2041E-3,5C000400,-0724,0825,12320,025.2,045.4,0.261,762.6,01.16,0.508
2015-09-26 02:25:00,1834E-3,5C000400,-0724,0825,12304,025.2,045.4,0.262,762.5,01.16,0.508
2015-09-26 02:26:00,1894E-3,5C000400,-0724,0825,12376,025.2,045.3,0.261,762.5,01.16,0.508
2015-09-26 02:27:00,1878E-3,5C000400,-0724,0825,12338,025.2,045.4,0.261,762.7,01.16,0.508
2015-09-26 02:28:00,1905E-3,5C000400,-0724,0825,12088,025.2,045.3,0.261,762.5,01.16,0.508
2015-09-26 02:29:00,1931E-3,5C000400,-0724,0825,12297,025.2,045.3,0.261,762.6,01.16,0.508
2015-09-26 02:30:00,1852E-3,5C000400,-0724,0825,12303,025.2,045.4,0.261,762.7,01.16,0.508
2015-09-26 02:31:00,1746E-3,5C000400,-0724,0825,12111,025.2,045.4,0.261,762.6,01.16,0.508
2015-09-26 02:32:00,1875E-3,5C000400,-0724,0824,12203,025.2,045.3,0.262,762.6,01.16,0.508
2015-09-26 02:33:00,2105E-3,5C000400,-0724,0825,12195,025.2,045.3,0.261,762.6,01.16,0.508
2015-09-26 02:34:00,1789E-3,5C000400,-0724,0825,12421,025.2,045.3,0.261,762.5,01.16,0.508
2015-09-26 02:35:00,1873E-3,5C000400,-0724,0825,12086,025.2,045.4,0.261,762.7,01.16,0.508
2015-09-26 02:36:00,1961E-3,5C000400,-0724,0825,12131,025.2,045.3,0.261,762.6,01.16,0.508
2015-09-26 02:37:00,1934E-3,5C000400,-0724,0826,12262,025.2,045.3,0.262,762.5,01.16,0.508
2015-09-26 02:38:00,1969E-3,5C000400,-0724,0825,12189,025.2,045.3,0.262,762.6,01.16,0.508
2015-09-26 02:39:00,1898E-3,5C000400,-0724,0825,12187,025.2,045.3,0.262,762.5,01.16,0.508
2015-09-26 02:40:00,1962E-3,5C000400,-0724,0824,12392,025.2,045.3,0.261,762.6,01.16,0.508
2015-09-26 02:41:00,1949E-3,5C000400,-0724,0825,12094,025.2,045.4,0.261,762.5,01.16,0.508
2015-09-26 02:42:00,1795E-3,5C000400,-0724,0824,12140,025.2,045.4,0.261,762.7,01.16,0.508
2015-09-26 02:43:00,1791E-3,5C000400,-0724,0826,12290,025.2,045.4,0.261,762.7,01.16,0.508
2015-09-26 02:44:00,1767E-3,5C000400,-0724,0825,12242,025.2,045.3,0.261,762.5,01.16,0.508
2015-09-26 02:45:00,1774E-3,5C000400,-0724,0824,12193,025.2,045.4,0.261,762.3,01.16,0.508
2015-09-26 02:46:00,1826E-3,5C000400,-0724,0825,12165,025.3,045.4,0.261,762.7,01.16,0.508
2015-09-26 02:47:00,1874E-3,5C000400,-0724,0825,12185,025.2,045.3,0.261,762.5,01.16,0.508
2015-09-26 02:48:00,1904E-3,5C000400,-0724,0825,12129,025.3,045.3,0.261,762.3,01.16,0.508
2015-09-26 02:49:00,1953E-3,5C000400,-0724,0824,12211,025.2,045.4,0.261,762.6,01.16,0.508
2015-09-26 02:50:00,1752E-3,5C000400,-0724,0825,12161,025.3,045.4,0.261,762.4,01.16,0.508
2015-09-26 02:51:00,1875E-3,5C000400,-0724,0825,12317,025.3,045.4,0.261,762.6,01.16,0.508
2015-09-26 02:52:00,1837E-3,5C000400,-0724,0825,12341,025.3,045.3,0.261,762.3,01.16,0.508
2015-09-26 02:53:00,1811E-3,5C000400,-0724,0824,12125,025.3,045.3,0.261,762.6,01.16,0.508
2015-09-26 02:54:00,1996E-3,5C000400,-0724,0825,12322,025.3,045.4,0.262,762.5,01.16,0.508
2015-09-26 02:55:00,1785E-3,5C000400,-0724,0825,12366,025.3,045.4,0.261,762.7,01.16,0.508
2015-09-26 02:56:00,1765E-3,5C000400,-0724,0825,12237,025.3,045.3,0.261,762.7,01.16,0.508
2015-09-26 02:57:00,1862E-3,5C000400,-0724,0825,12099,025.3,045.3,0.261,762.7,01.16,0.508
2015-09-26 02:58:00,1993E-3,5C000400,-0724,0825,12349,025.3,045.4,0.261,762.6,01.16,0.508
2015-09-26 02:59:00,1786E-3,5C000400,-0724,0825,12239,025.3,045.4,0.261,762.7,01.16,0.508
2015-09-26 03:00:00,1796E-3,5C000400,-0724,0825,12121,025.3,045.4,0.261,762.7,01.16,0.508
2015-09-26 03:01:00,1782E-3,5C000400,-0724,0825,12253,025.3,045.4,0.261,762.6,01.16,0.508
2015-09-26 03:02:00,1772E-3,5C000400,-0724,0825,12356,025.3,045.4,0.261,762.7,01.16,0.508
2015-09-26 03:03:00,1697E-3,5C000400,-0724,0825,12297,025.3,045.3,0.261,762.5,01.16,0.508
2015-09-26 03:04:00,1827E-3,5C000400,-0724,0824,12211,025.3,045.4,0.261,762.8,01.16,0.508
2015-09-26 03:05:00,1829E-3,5C000400,-0724,0824,12206,025.3,045.4,0.261,762.8,01.16,0.508
2015-09-26 03:06:00,1897E-3,5C000400,-0724,0824,12194,025.3,045.3,0.261,762.7,01.16,0.508
2015-09-26 03:07:00,1858E-3,5C000400,-0724,0825,12095,025.4,045.3,0.261,762.7,01.16,0.508
2015-09-26 03:08:00,1856E-3,5C000400,-0724,0825,12281,025.3,045.4,0.261,762.6,01.16,0.508
2015-09-26 03:09:00,1863E-3,5C000400,-0724,0826,12059,025.4,045.4,0.261,762.8,01.16,0.508
2015-09-26 03:10:00,1816E-3,5C000400,-0724,0826,12292,025.3,045.3,0.261,762.7,01.16,0.508
2015-09-26 03:11:00,1928E-3,5C000400,-0724,0824,12226,025.3,045.3,0.261,762.7,01.16,0.508
2015-09-26 03:12:00,1786E-3,5C000400,-0724,0825,12288,025.4,045.3,0.261,762.7,01.16,0.508
2015-09-26 03:13:00,1890E-3,5C000400,-0724,0825,12224,025.4,045.4,0.261,762.9,01.16,0.508
2015-09-26 03:14:00,1890E-3,5C000400,-0724,0825,12153,025.4,045.4,0.261,762.6,01.16,0.508
2015-09-26 03:15:00,1882E-3,5C000400,-0724,0825,12038,025.4,045.4,0.261,762.8,01.16,0.508
2015-09-26 03:16:00,1910E-3,5C000400,-0724,0825,12199,025.4,045.3,0.261,762.9,01.16,0.508
2015-09-26 03:17:00,1938E-3,5C000400,-0724,0825,12261,025.4,045.4,0.261,762.7,01.16,0.508
2015-09-26 03:18:00,1819E-3,5C000400,-0724,0825,12139,025.4,045.3,0.261,762.7,01.16,0.508
2015-09-26 03:19:00,1969E-3,5C000400,-0724,0825,12330,025.4,045.3,0.261,762.7,01.16,0.508
2015-09-26 03:20:00,2070E-3,5C000400,-0724,0824,12269,025.4,045.3,0.261,762.7,01.16,0.508
2015-09-26 03:21:00,1905E-3,5C000400,-0724,0825,12360,025.4,045.4,0.261,762.8,01.16,0.508
2015-09-26 03:22:00,1773E-3,5C000400,-0724,0825,12200,025.4,045.4,0.261,762.5,01.16,0.508
2015-09-26 03:23:00,1817E-3,5C000400,-0724,0825,12222,025.4,045.4,0.260,762.7,01.16,0.508
2015-09-26 03:24:00,1928E-3,5C000400,-0724,0825,12231,025.4,045.4,0.260,762.7,01.16,0.508
2015-09-26 03:25:00,1959E-3,5C000400,-0724,0824,12155,025.4,045.4,0.261,762.7,01.16,0.508
2015-09-26 03:26:00,1744E-3,5C000400,-0724,0825,12169,025.4,045.4,0.261,762.7,01.16,0.508
2015-09-26 03:27:00,1825E-3,5C000400,-0724,0825,12236,025.4,045.4,0.261,762.7,01.16,0.508
2015-09-26 03:28:00,1843E-3,5C000400,-0724,0824,12406,025.4,045.4,0.261,762.7,01.16,0.508
2015-09-26 03:29:00,2025E-3,5C000400,-0724,0825,12210,025.4,045.4,0.261,762.7,01.16,0.508
2015-09-26 03:30:00,1825E-3,5C000400,-0724,0825,12113,025.4,045.4,0.261,762.8,01.16,0.508
2015-09-26 03:31:00,1735E-3,5C000400,-0724,0825,12241,025.4,045.4,0.260,762.8,01.16,0.508
2015-09-26 03:32:00,1801E-3,5C000400,-0724,0825,12209,025.4,045.4,0.261,762.8,01.16,0.508
2015-09-26 03:33:00,1802E-3,5C000400,-0724,0825,12260,025.4,045.4,0.261,762.8,01.16,0.508
2015-09-26 03:34:00,1839E-3,5C000400,-0724,0825,12172,025.4,045.4,0.261,762.9,01.16,0.508
2015-09-26 03:35:00,1824E-3,5C000400,-0724,0824,12235,025.4,045.4,0.261,762.8,01.16,0.508
2015-09-26 03:36:00,1813E-3,5C000400,-0724,0825,12362,025.4,045.4,0.261,762.7,01.16,0.508
2015-09-26 03:37:00,1804E-3,5C000400,-0724,0825,12334,025.4,045.4,0.261,762.8,01.16,0.508
2015-09-26 03:38:00,1863E-3,5C000400,-0724,0824,12183,025.4,045.4,0.261,763.0,01.16,0.508
2015-09-26 03:39:00,1822E-3,5C000400,-0724,0825,12149,025.4,045.4,0.261,762.7,01.16,0.508
2015-09-26 03:40:00,1859E-3,5C000400,-0724,0826,12255,025.5,045.4,0.261,762.9,01.16,0.508
2015-09-26 03:41:00,2035E-3,5C000400,-0724,0825,12118,025.5,045.4,0.261,762.7,01.16,0.508
2015-09-26 03:42:00,1937E-3,5C000400,-0724,0825,12214,025.4,045.4,0.261,762.8,01.16,0.508
2015-09-26 03:43:00,1715E-3,5C000400,-0724,0824,12170,025.5,045.3,0.261,762.9,01.16,0.508
2015-09-26 03:44:00,1947E-3,5C000400,-0724,0825,12250,025.5,045.4,0.260,762.8,01.16,0.508
2015-09-26 03:45:00,1870E-3,5C000400,-0724,0825,12369,025.5,045.4,0.260,762.8,01.16,0.508
2015-09-26 03:46:00,1940E-3,5C000400,-0724,0825,12174,025.5,045.4,0.261,763.0,01.16,0.508
2015-09-26 03:47:00,1879E-3,5C000400,-0724,0825,12170,025.5,045.4,0.261,762.8,01.16,0.508
2015-09-26 03:48:00,1785E-3,5C000400,-0724,0825,12188,025.5,045.4,0.261,762.8,01.16,0.508
2015-09-26 03:49:00,1776E-3,5C000400,-0724,0825,12311,025.5,045.4,0.261,762.9,01.16,0.508
2015-09-26 03:50:00,1738E-3,5C000400,-0724,0825,12133,025.5,045.4,0.261,762.7,01.16,0.508
2015-09-26 03:51:00,1897E-3,5C000400,-0724,0824,12183,025.5,045.4,0.261,762.7,01.16,0.508
2015-09-26 03:52:00,1912E-3,5C000400,-0724,0825,12148,025.5,045.4,0.261,762.9,01.16,0.508
2015-09-26 03:53:00,2019E-3,5C000400,-0724,0825,12187,025.5,045.4,0.261,762.7,01.16,0.508
2015-09-26 03:54:00,2026E-3,5C000400,-0724,0824,12159,025.5,045.3,0.260,762.8,01.16,0.508
2015-09-26 03:55:00,1701E-3,5C000400,-0724,0825,12334,025.5,045.4,0.260,762.7,01.16,0.508
2015-09-26 03:56:00,1794E-3,5C000400,-0724,0825,12253,025.5,045.4,0.261,762.7,01.16,0.508
2015-09-26 03:57:00,1877E-3,5C000400,-0724,0825,12263,025.5,045.4,0.261,762.8,01.16,0.508
2015-09-26 03:58:00,1754E-3,5C000400,-0724,0825,12073,025.5,045.4,0.261,762.7,01.16,0.508
2015-09-26 03:59:00,1874E-3,5C000400,-0724,0825,12299,025.5,045.3,0.261,762.9,01.16,0.508
2015-09-26 04:00:00,1862E-3,5C000400,-0724,0825,12057,025.5,045.4,0.261,762.9,01.16,0.508
2015-09-26 04:01:00,1800E-3,5C000400,-0724,0825,12214,025.5,045.4,0.261,762.6,01.16,0.508
2015-09-26 04:02:00,1812E-3,5C000400,-0724,0825,12281,025.5,045.4,0.260,762.7,01.16,0.508
2015-09-26 04:03:00,1957E-3,5C000400,-0724,0825,12262,025.5,045.4,0.261,762.7,01.16,0.508
2015-09-26 04:04:00,1870E-3,5C000400,-0724,0825,12236,025.5,045.4,0.261,762.7,01.16,0.508
2015-09-26 04:05:00,1827E-3,5C000400,-0724,0825,12210,025.5,045.3,0.261,762.6,01.16,0.508
2015-09-26 04:06:00,1764E-3,5C000400,-0724,0825,12295,025.5,045.4,0.261,762.7,01.16,0.508
2015-09-26 04:07:00,1763E-3,5C000400,-0724,0825,12418,025.5,045.4,0.261,762.8,01.16,0.508
2015-09-26 04:08:00,1972E-3,5C000400,-0724,0825,12086,025.5,045.4,0.261,762.5,01.16,0.508
2015-09-26 04:09:00,1947E-3,5C000400,-0724,0825,12211,025.5,045.4,0.260,762.7,01.16,0.508
2015-09-26 04:10:00,1840E-3,5C000400,-0724,0825,12194,025.5,045.4,0.260,762.8,01.16,0.508
2015-09-26 04:11:00,1855E-3,5C000400,-0724,0825,12185,025.5,045.4,0.261,762.6,01.16,0.508
2015-09-26 04:12:00,1924E-3,5C000400,-0724,0825,12224,025.6,045.4,0.261,762.7,01.16,0.508
2015-09-26 04:13:00,1693E-3,5C000400,-0724,0825,12154,025.5,045.4,0.261,762.6,01.16,0.508
2015-09-26 04:14:00,1803E-3,5C000400,-0724,0825,12340,025.5,045.3,0.261,762.8,01.16,0.508
2015-09-26 04:15:00,1855E-3,5C000400,-0724,0826,12189,025.5,045.4,0.261,762.6,01.16,0.508
2015-09-26 04:16:00,1957E-3,5C000400,-0724,0824,12337,025.6,045.4,0.261,762.6,01.16,0.508
2015-09-26 04:17:00,1766E-3,5C000400,-0724,0825,12130,025.5,045.4,0.260,762.7,01.16,0.508
2015-09-26 04:18:00,2018E-3,5C000400,-0724,0825,12275,025.6,045.4,0.260,762.7,01.16,0.508
2015-09-26 04:19:00,2041E-3,5C000400,-0724,0825,12311,025.6,045.4,0.261,762.7,01.16,0.508
2015-09-26 04:20:00,1863E-3,5C000400,-0724,0825,12260,025.6,045.4,0.261,762.8,01.16,0.508